Henderson, KY

6:13 PM CDT on September 16, 2019 (GMT -0500)
Henderson City-County

Weather History for KEHR - May, 2019

Change the Weather History Date:

Friday, May 3, 2019

  Actual Average Record
Temperature  
Mean Temperature 63 °F -  
Max Temperature 66 °F 71 °F 88 °F (1959)
Min Temperature 60 °F 48 °F 34 °F (1971)
Degree Days  
Heating Degree Days 2    
Growing Degree Days 13 (Base 50)    
Moisture  
Dew Point 61 °F    
Average Humidity 92    
Maximum Humidity 100    
Minimum Humidity 81    
Precipitation  
Precipitation 1.29 in - - ()
Sea Level Pressure  
Sea Level Pressure 30.00 in    
Wind  
Wind Speed 5 mph (NNW)    
Max Wind Speed 10 mph    
Max Gust Speed -    
Visibility 8 miles    
Events Rain , Thunderstorm    
Averages and records for this station are not official NWS values.
T = Trace of Precipitation, MM = Missing Value Source: NWS Daily Summary

Daily Weather History Graph

Daily Weather History Graph

Search for Another Location

Airport or City:

Astronomy

May. 03, 2019 Rise Set
Actual Time 5:52 AM CDT 7:42 PM CDT
Civil Twilight 5:24 AM CDT 8:11 PM CDT
Nautical Twilight 4:50 AM CDT 8:45 PM CDT
Astronomical Twilight 4:13 AM CDT 9:22 PM CDT
Moon 5:30 AM CDT (5/3) 6:32 PM CDT (5/3)
Length of Visible Light 14h 46m
Length of Day
13h 50m
Waning Crescent, 2% of the Moon is Illuminated
May 3
Waning Crescent
May 4
New
May 11
First Quarter
May 18
Full
May 26
Last Quarter

Hourly Weather History & Observations

Time (CDT) Temp. Dew Point Humidity Pressure Visibility Wind Dir Wind Speed Gust Speed Precip Events Conditions
12:16 AM 64.4 °F 60.8 °F 88% 30.01 in 7.0 mi Calm Calm - 0.08 in Rain Rain
12:35 AM 62.6 °F 60.8 °F 94% 30.04 in 4.0 mi Calm Calm - 0.33 in Rain , Thunderstorm Heavy Thunderstorms and Rain
12:49 AM 62.6 °F 60.8 °F 94% 30.02 in 9.0 mi NNW 4.6 mph - 0.39 in Rain , Thunderstorm Rain
12:56 AM 62.1 °F 61.0 °F 96% 30.03 in 10.0 mi North 5.8 mph - 0.40 in Rain , Thunderstorm Rain
1:12 AM 62.6 °F 60.8 °F 94% 29.98 in 10.0 mi NNE 10.4 mph - 0.06 in Rain Rain
1:56 AM 63.0 °F 61.0 °F 93% 29.99 in 10.0 mi ENE 9.2 mph - 0.07 in   Scattered Clouds
2:51 AM 62.6 °F 60.8 °F 94% 29.97 in 5.0 mi North 9.2 mph - 0.24 in Rain Heavy Rain
2:56 AM 62.1 °F 60.1 °F 93% 29.99 in 5.0 mi NNE 8.1 mph - 0.27 in Rain Heavy Rain
3:19 AM 62.6 °F 60.8 °F 94% 30.00 in 5.0 mi East 3.5 mph - 0.08 in Rain Rain
3:45 AM 62.6 °F 60.8 °F 94% 29.98 in 6.0 mi NNE 5.8 mph - 0.25 in Rain Rain
3:56 AM 61.0 °F 60.1 °F 97% 30.00 in 6.0 mi NNE 6.9 mph - 0.30 in Rain Rain
4:23 AM 60.8 °F 60.8 °F 100% 29.97 in 5.0 mi East 3.5 mph - 0.09 in Rain Rain
4:31 AM 62.6 °F 60.8 °F 94% 29.96 in 7.0 mi NE 6.9 mph - 0.10 in Rain Light Rain
4:56 AM 61.0 °F 61.0 °F 100% 29.95 in 8.0 mi ENE 10.4 mph - 0.16 in Rain Rain
5:09 AM 60.8 °F 60.8 °F 100% 29.92 in 10.0 mi NE 9.2 mph - 0.02 in Rain Light Rain
5:56 AM 62.1 °F 61.0 °F 96% 29.98 in 10.0 mi SE 6.9 mph - 0.08 in Rain Light Rain
6:38 AM 62.6 °F 60.8 °F 94% 29.97 in 10.0 mi Calm Calm - 0.01 in   Mostly Cloudy
6:56 AM 62.1 °F 61.0 °F 96% 30.01 in 10.0 mi NW 3.5 mph - 0.01 in   Mostly Cloudy
7:53 AM 62.6 °F 60.8 °F 94% 29.99 in 10.0 mi Calm Calm - N/A   Overcast
7:56 AM 62.1 °F 61.0 °F 96% 30.02 in 10.0 mi Calm Calm - N/A   Overcast
8:56 AM 64.0 °F 62.1 °F 93% 30.03 in 10.0 mi NW 3.5 mph - N/A   Overcast
9:54 AM 64.4 °F 62.6 °F 94% 30.01 in 10.0 mi WNW 6.9 mph - N/A   Overcast
9:56 AM 64.9 °F 63.0 °F 93% 30.04 in 10.0 mi WNW 6.9 mph - N/A   Overcast
10:22 AM 64.4 °F 62.6 °F 94% 30.00 in 10.0 mi WNW 5.8 mph - N/A   Overcast
10:29 AM 64.4 °F 62.6 °F 94% 30.00 in 10.0 mi WNW 5.8 mph - N/A   Overcast
10:56 AM 64.9 °F 62.1 °F 90% 30.03 in 10.0 mi WNW 5.8 mph - N/A   Overcast
11:09 AM 64.4 °F 62.6 °F 94% 30.01 in 5.0 mi NW 8.1 mph - N/A   Overcast
11:18 AM 62.6 °F 62.6 °F 100% 30.01 in 4.0 mi NW 8.1 mph - N/A   Overcast
11:42 AM 64.4 °F 62.6 °F 94% 30.01 in 6.0 mi WNW 4.6 mph - N/A   Mostly Cloudy
11:56 AM 64.9 °F 63.0 °F 93% 30.04 in 8.0 mi West 6.9 mph - N/A   Scattered Clouds
12:11 PM 66.2 °F 62.6 °F 88% 30.00 in 8.0 mi NW 8.1 mph - N/A   Mostly Cloudy
12:38 PM 66.2 °F 62.6 °F 88% 30.00 in 10.0 mi NW 9.2 mph - N/A   Overcast
12:56 PM 64.9 °F 62.1 °F 90% 30.03 in 9.0 mi WNW 9.2 mph - N/A   Overcast
1:56 PM 66.9 °F 62.1 °F 84% 30.02 in 10.0 mi NW 6.9 mph - N/A   Overcast
2:56 PM 66.9 °F 61.0 °F 81% 30.02 in 10.0 mi Variable 4.6 mph - N/A   Mostly Cloudy
3:13 PM 66.2 °F 60.8 °F 83% 29.99 in 10.0 mi NW 5.8 mph - N/A   Overcast
3:56 PM 66.9 °F 62.1 °F 84% 30.01 in 10.0 mi WNW 9.2 mph - N/A   Overcast
4:56 PM 66.0 °F 61.0 °F 84% 30.01 in 10.0 mi WNW 6.9 mph - N/A   Overcast
5:34 PM 66.2 °F 60.8 °F 83% 29.98 in 10.0 mi NNW 5.8 mph - N/A   Mostly Cloudy
5:56 PM 66.0 °F 61.0 °F 84% 30.01 in 10.0 mi NW 8.1 mph - N/A   Mostly Cloudy
6:06 PM 66.2 °F 60.8 °F 83% 29.98 in 10.0 mi NNW 5.8 mph - N/A   Mostly Cloudy
6:56 PM 64.0 °F 61.0 °F 90% 30.00 in 10.0 mi NNW 3.5 mph - N/A   Scattered Clouds
8:56 PM 63.0 °F 60.1 °F 90% 30.00 in 9.0 mi Variable 4.6 mph - N/A   Clear
9:56 PM 62.1 °F 60.1 °F 93% 30.00 in 8.0 mi Calm Calm - N/A   Clear
10:34 PM 62.6 °F 60.8 °F 94% 29.98 in 6.0 mi Calm Calm - N/A   Mostly Cloudy
10:56 PM 62.1 °F 60.1 °F 93% 30.01 in 5.0 mi Calm Calm - N/A   Mostly Cloudy
11:20 PM 60.8 °F 60.8 °F 100% 29.96 in 5.0 mi NNW 3.5 mph - N/A   Scattered Clouds
11:56 PM 61.0 °F 60.1 °F 97% 29.99 in 7.0 mi Calm Calm - N/A   Scattered Clouds